[[{"header":{"parameterUnit":"m.s-1","parameterCategory":1,"la1":30.2991,"la2":30.254,"lo1":-89.0895,"lo2":-89.0444,"dy":0.0017,"dx":0.0017,"nx":28,"ny":28,"refTime":"2024-10-14T21:00:00:Z","depth":0,"parameterNumber":2,"parameterNumberName":"U-component_of_WINDS"},"data":[0,0,0,0,0,0,0,0,0,0,0,0,0,0,0,0,0,0,0,0,0,0,0,0,0,0,0,0,0,0,0,0,0,0,0,0,0,0,0,0,0,0,0,0,0,0,0,0,0,0,0,0,0,0,0,0,0,0,-4.3119,-4.312,0,-4.3186,-4.3186,-4.3187,-4.3093,-4.3089,-4.3086,-4.3083,-4.315,-4.3154,-4.3159,0,0,0,0,0,0,0,0,0,0,0,0,0,-4.2906,-4.2911,-4.3119,-4.312,-4.312,-4.3186,-4.3186,-4.3187,-4.3093,-4.3089,-4.3085,-4.3081,-4.3148,-4.3154,-4.316,0,0,0,0,0,0,0,0,0,0,0,0,0,-4.2989,-4.2912,-4.3119,-4.3081,-4.3079,-4.3185,-4.3186,-4.3188,-4.3094,-4.3089,-4.3084,-4.3079,-4.3146,-4.3153,-4.316,-4.3306,0,0,-4.3183,-4.3186,0,0,0,0,0,0,0,0,-4.2984,-4.2996,-4.3086,-4.3084,-4.3081,-4.3126,-4.3136,-4.3227,-4.3095,-4.3088,-4.3083,-4.3077,-4.3146,-4.3153,-4.3176,-4.3309,-4.3312,-4.3183,-4.3188,-4.3191,-4.3193,0,0,0,0,0,0,0,-4.2978,-4.2993,-4.3145,-4.3087,-4.3085,-4.306,-4.3066,-4.3153,-4.3144,-4.3088,-4.3082,-4.3091,-4.3143,-4.3169,-4.3177,-4.3313,-4.3183,-4.319,-4.3194,-4.3197,-4.3567,-4.3573,0,0,0,0,0,0,-4.2978,-4.2989,-4.3143,-4.3147,-4.3019,-4.3068,-4.3075,-4.3116,-4.3143,-4.3142,-4.3095,-4.3086,-4.3159,-4.3168,-4.3179,-4.3351,-4.3191,-4.3198,-4.3202,-4.3562,-4.3569,-4.3575,0,0,0,0,0,0,-4.2973,-4.2992,-4.314,-4.3066,-4.3083,-4.3077,-4.3125,-4.312,-4.3146,-4.3148,-4.3146,-4.3124,-4.3156,-4.3169,-4.3275,-4.3352,-4.3201,-4.3208,-4.3556,-4.3564,-4.3572,-4.3696,0,0,0,0,0,0,-4.2968,-4.2991,-4.3048,-4.3068,-4.3088,-4.3237,-4.3129,-4.3125,-4.316,-4.3149,-4.3174,-4.3174,-4.3153,-4.3265,-4.3282,-4.3359,-4.3214,-4.3549,-4.3559,-4.3569,-4.3685,-4.3708,-4.3727,0,0,0,0,0,-4.296,-4.308,-4.3051,-4.307,-4.3158,-4.3241,-4.3252,-4.3226,-4.3166,-4.3222,-4.3223,-4.3173,-4.334,-4.3276,-4.3295,-4.3376,-4.3544,-4.3556,-4.3568,-4.3676,-4.3703,-4.3726,0,0,0,0,0,0,-4.3068,-4.3082,-4.305,-4.318,-4.321,-4.3225,-4.3295,-4.3256,-4.3304,-4.3292,-4.3256,-4.3263,-4.3377,-4.3386,-4.3315,-4.3517,-4.3432,-4.3449,-4.3507,-4.3533,-4.3554,-4.3549,-4.322,0,0,0,0,0,-4.3107,-4.3174,-4.3182,-4.3296,-4.3313,-4.3302,-4.3337,-4.3314,-4.3344,-4.3356,-4.3365,-4.3395,-4.3454,-4.3494,-4.3548,-4.3686,-4.3689,-4.375,-4.3771,-4.3788,-4.3803,-4.3875,-4.3902,-4.3615,-4.3615,-4.3614,0,0,-4.3188,-4.3204,-4.3249,-4.3318,-4.3339,-4.3409,-4.3313,-4.3391,-4.3442,-4.3368,-4.3469,-4.3476,-4.3507,-4.363,-4.3684,-4.3641,-4.3883,-4.3803,-4.3817,-4.3823,-4.389,-4.3918,-4.3942,-4.3623,-4.3621,-4.362,0,0,-4.3371,-4.339,-4.3487,-4.3509,-4.3542,-4.3534,-4.3557,-4.3578,-4.358,-4.3681,-4.3626,-4.3685,-4.3789,-4.3813,-4.3839,-4.4029,-4.3985,-4.4048,-4.4157,-4.4228,-4.425,-4.427,-4.4338,-4.4363,-4.4063,-4.4063,-4.4063,0,-4.3468,-4.3572,-4.3541,-4.3623,-4.3655,-4.3591,-4.3687,-4.371,-4.3759,-4.3782,-4.3734,-4.3861,-4.3877,-4.4004,-4.405,-4.4073,-4.4098,-4.4045,-4.4249,-4.4269,-4.4287,-4.4351,-4.4377,-4.407,-4.407,-4.4069,-4.4068,0,-4.3688,-4.3761,-4.3835,-4.3884,-4.3924,-4.4013,-4.3995,-4.4038,-4.4012,-4.4008,-4.4111,-4.4128,-4.4184,-4.4212,-4.4187,-4.4335,-4.4308,-4.4255,-4.4169,-4.4323,-4.4382,-4.4407,-4.4081,-4.4078,-4.4076,-4.4074,0,0,-4.3943,-4.3973,-4.4001,-4.4022,-4.4053,-4.4108,-4.4193,-4.4248,-4.4286,-4.4321,-4.4392,-4.4479,-4.443,-4.446,-4.4436,-4.4498,-4.4648,-4.4437,-4.4438,-4.4476,-4.4811,-4.4851,-4.488,-4.4618,-4.4622,-4.4626,-4.4808,0,-4.4126,-4.4274,-4.4249,-4.4392,-4.4459,-4.4398,-4.4471,-4.4498,-4.4496,-4.4551,-4.4548,-4.4611,-4.4542,-4.4559,-4.4618,-4.4617,-4.4715,-4.4604,-4.4682,-4.4685,-4.4677,-4.4911,-4.4954,-4.5126,-4.4832,-4.4836,-4.4838,0,-4.436,-4.4404,-4.4555,-4.4574,-4.46,-4.4668,-4.4716,-4.4769,-4.4797,-4.4791,-4.4824,-4.4788,-4.4871,-4.4783,-4.4897,-4.4822,-4.4852,-4.4857,-4.4863,-4.487,-4.4772,-4.4925,-4.518,-4.5206,-4.4875,-4.4872,-4.4869,0,-4.453,-4.4627,-4.473,-4.475,-4.4775,-4.4823,-4.4836,-4.4858,-4.4893,-4.4935,-4.4956,-4.5007,-4.5035,-4.5075,-4.5053,-4.4991,-4.5171,-4.5081,-4.5168,-4.5168,-4.5209,-4.5207,-4.5473,-4.5228,-4.5228,-4.5227,-4.5227,0,-4.4738,-4.4832,-4.4807,-4.487,-4.4973,-4.4942,-4.5045,-4.505,-4.507,-4.5132,-4.5082,-4.5141,-4.5109,-4.5165,-4.5148,-4.5245,-4.5258,-4.5255,-4.5249,-4.526,-4.526,-4.5279,-4.5267,-4.5234,-4.5233,-4.5231,-4.523,0,-4.4947,-4.4933,-4.5041,-4.5055,-4.5061,-4.5137,-4.5148,-4.5207,-4.52,-4.5279,-4.5296,-4.5286,-4.5349,-4.5332,-4.54,-4.5389,-4.5511,-4.549,-4.5502,-4.5497,-4.5585,-4.5577,-4.5873,-4.591,-4.5641,-4.5644,-4.5646,0,-4.508,-4.5152,-4.5174,-4.5212,-4.5228,-4.5291,-4.5325,-4.5297,-4.5335,-4.5371,-4.5425,-4.5484,-4.5529,-4.5633,-4.5632,-4.5683,-4.5663,-4.5763,-4.5671,-4.5679,-4.5665,-4.5661,-4.5668,-4.5782,-4.5785,-4.5788,-4.579,0,-4.5319,-4.5309,-4.5362,-4.5412,-4.5456,-4.5494,-4.5527,-4.5561,-4.5534,-4.558,-4.5644,-4.568,-4.5749,-4.5808,-4.5855,-4.5866,-4.5824,-4.5819,-4.5842,-4.5853,-4.5857,-4.5856,-4.5553,-4.5812,-4.581,-4.5809,-4.5807,-4.5806,-4.5494,-4.5554,-4.5579,-4.564,-4.5662,-4.5694,-4.5749,-4.5749,-4.5803,-4.5858,-4.5837,-4.5911,-4.5934,-4.5993,-4.601,-4.6067,-4.6028,-4.6062,-4.607,-4.6079,-4.609,-4.5848,-4.6075,-4.6074,-4.6074,-4.6073,-4.6073,0,-4.573,-4.5743,-4.5799,-4.5847,-4.5894,-4.585,-4.5884,-4.5926,-4.5992,-4.6018,-4.6064,-4.6138,-4.6194,-4.6196,-4.6248,-4.6293,-4.6275,-4.6308,-4.6304,-4.6307,-4.6121,-4.6096,-4.6322,-4.6322,-4.6322,-4.6321,-4.6321,-4.6321,-4.5859,-4.5958,-4.595,-4.6059,-4.6071,-4.6143,-4.6166,-4.6195,-4.6216,-4.63,-4.6347,-4.6348,-4.6364,-4.6417,-4.6466,-4.6465,-4.6487,-4.6527,-4.6519,-4.6345,-4.6321,-4.6297,-4.6273,-4.6532,-4.6533,-4.67,-4.6702,-4.6703]},{"header":{"parameterUnit":"m.s-1","parameterCategory":1,"la1":30.2991,"la2":30.254,"lo1":-89.0895,"lo2":-89.0444,"dy":0.0017,"dx":0.0017,"nx":28,"ny":28,"refTime":"2024-10-14T21:00:00:Z","depth":0,"parameterNumber":3,"parameterNumberName":"V-component_of_WINDS"},"data":[0,0,0,0,0,0,0,0,0,0,0,0,0,0,0,0,0,0,0,0,0,0,0,0,0,0,0,0,0,0,0,0,0,0,0,0,0,0,0,0,0,0,0,0,0,0,0,0,0,0,0,0,0,0,0,0,0,0,-8.5941,-8.5942,0,-8.6043,-8.6044,-8.6045,-8.5931,-8.5927,-8.5923,-8.5919,-8.6016,-8.6022,-8.6029,0,0,0,0,0,0,0,0,0,0,0,0,0,-8.5642,-8.5648,-8.5941,-8.5942,-8.5944,-8.6042,-8.6044,-8.6045,-8.5932,-8.5927,-8.5922,-8.5917,-8.6014,-8.6022,-8.603,0,0,0,0,0,0,0,0,0,0,0,0,0,-8.5761,-8.565,-8.5941,-8.5899,-8.5897,-8.6042,-8.6044,-8.6046,-8.5933,-8.5927,-8.592,-8.5915,-8.6011,-8.6021,-8.6031,-8.622,0,0,-8.6061,-8.6065,0,0,0,0,0,0,0,0,-8.5754,-8.5772,-8.5904,-8.5903,-8.59,-8.5968,-8.5974,-8.6104,-8.5935,-8.5919,-8.5919,-8.5911,-8.6005,-8.6015,-8.6048,-8.6224,-8.6228,-8.6062,-8.6068,-8.6072,-8.6075,0,0,0,0,0,0,0,-8.5746,-8.5767,-8.5981,-8.5906,-8.5904,-8.5873,-8.5883,-8.5998,-8.5996,-8.592,-8.5912,-8.5926,-8.6002,-8.6038,-8.6049,-8.623,-8.6061,-8.607,-8.6076,-8.608,-8.6565,-8.6571,0,0,0,0,0,0,-8.5744,-8.5761,-8.5978,-8.5984,-8.581,-8.5884,-8.5895,-8.5952,-8.5995,-8.5995,-8.5931,-8.592,-8.6025,-8.6038,-8.6052,-8.6275,-8.6072,-8.6081,-8.6087,-8.6558,-8.6566,-8.6574,0,0,0,0,0,0,-8.5738,-8.5764,-8.5974,-8.587,-8.5895,-8.5896,-8.5962,-8.5958,-8.5994,-8.6004,-8.6002,-8.5969,-8.602,-8.6038,-8.6179,-8.6277,-8.6085,-8.6094,-8.655,-8.656,-8.657,-8.6724,0,0,0,0,0,0,-8.573,-8.5763,-8.5836,-8.5873,-8.5901,-8.6102,-8.5968,-8.5964,-8.6012,-8.5999,-8.6039,-8.6039,-8.6017,-8.6165,-8.6189,-8.6287,-8.6102,-8.6541,-8.6554,-8.6567,-8.671,-8.6738,-8.6763,0,0,0,0,0,-8.5719,-8.5875,-8.5841,-8.5868,-8.5993,-8.6108,-8.6123,-8.6096,-8.6021,-8.6093,-8.6099,-8.6038,-8.6263,-8.618,-8.6206,-8.6309,-8.6534,-8.655,-8.6566,-8.6698,-8.6733,-8.6762,0,0,0,0,0,0,-8.5847,-8.5879,-8.5841,-8.6014,-8.6059,-8.6088,-8.6179,-8.6134,-8.62,-8.6184,-8.6145,-8.6155,-8.6305,-8.6321,-8.6229,-8.6493,-8.6386,-8.6407,-8.6478,-8.6511,-8.6536,-8.6529,-8.611,0,0,0,0,0,-8.5896,-8.5989,-8.601,-8.6159,-8.6184,-8.6179,-8.6227,-8.6203,-8.6247,-8.6265,-8.6281,-8.6325,-8.6405,-8.6459,-8.6533,-8.6712,-8.6718,-8.6795,-8.6821,-8.6843,-8.6862,-8.6956,-8.699,-8.6625,-8.6625,-8.6625,0,0,-8.5996,-8.6025,-8.6085,-8.6186,-8.6218,-8.6313,-8.6195,-8.63,-8.6369,-8.628,-8.6414,-8.6428,-8.6474,-8.6635,-8.6706,-8.6652,-8.6964,-8.6863,-8.688,-8.6887,-8.6975,-8.701,-8.7041,-8.6636,-8.6634,-8.6632,0,0,-8.6228,-8.626,-8.6388,-8.6423,-8.6474,-8.6469,-8.65,-8.6536,-8.6542,-8.6677,-8.6612,-8.6692,-8.6832,-8.6867,-8.6903,-8.7148,-8.7093,-8.7173,-8.7309,-8.7402,-8.743,-8.7455,-8.7541,-8.7573,-8.7191,-8.7192,-8.7192,0,-8.6346,-8.6488,-8.6458,-8.6569,-8.6614,-8.654,-8.6667,-8.6702,-8.6774,-8.6806,-8.6745,-8.6919,-8.6944,-8.7111,-8.7171,-8.7203,-8.7235,-8.7168,-8.7429,-8.7454,-8.7477,-8.7559,-8.7591,-8.7201,-8.72,-8.7199,-8.7198,0,-8.6629,-8.6729,-8.6826,-8.69,-8.6955,-8.7074,-8.706,-8.712,-8.709,-8.7091,-8.7228,-8.7256,-8.7334,-8.7372,-8.7344,-8.7535,-8.75,-8.7435,-8.7326,-8.7522,-8.7597,-8.7629,-8.7214,-8.7211,-8.7208,-8.7206,0,0,-8.6944,-8.7001,-8.7037,-8.7069,-8.712,-8.7195,-8.7309,-8.7387,-8.7439,-8.7491,-8.7584,-8.7704,-8.7644,-8.7685,-8.7659,-8.774,-8.7931,-8.7665,-8.7665,-8.7712,-8.8142,-8.819,-8.8227,-8.7895,-8.7901,-8.7906,-8.8137,0,-8.7176,-8.7376,-8.7353,-8.7543,-8.7633,-8.7564,-8.7663,-8.7703,-8.7707,-8.7782,-8.7784,-8.787,-8.7785,-8.7809,-8.7886,-8.7891,-8.8016,-8.7874,-8.7979,-8.7983,-8.7969,-8.8266,-8.8318,-8.8535,-8.8167,-8.8172,-8.8176,0,-8.7473,-8.7538,-8.7738,-8.7775,-8.7811,-8.7901,-8.7971,-8.8045,-8.8088,-8.8085,-8.8131,-8.8091,-8.8202,-8.8092,-8.8244,-8.8148,-8.8189,-8.8198,-8.8206,-8.8214,-8.8091,-8.8281,-8.8604,-8.8636,-8.8222,-8.8218,-8.8215,0,-8.7681,-8.7818,-8.7956,-8.7985,-8.8032,-8.8096,-8.8118,-8.8155,-8.8204,-8.8264,-8.8295,-8.8367,-8.8406,-8.8461,-8.844,-8.8362,-8.8596,-8.8484,-8.8594,-8.8595,-8.8646,-8.8643,-8.8979,-8.8675,-8.8674,-8.8673,-8.8673,0,-8.7942,-8.8067,-8.805,-8.8134,-8.8271,-8.8242,-8.8377,-8.839,-8.8424,-8.8508,-8.8451,-8.853,-8.8499,-8.8575,-8.856,-8.8687,-8.8705,-8.8704,-8.8698,-8.8708,-8.8709,-8.8734,-8.8718,-8.8682,-8.868,-8.8678,-8.8677,0,-8.8197,-8.8191,-8.8336,-8.8369,-8.838,-8.8479,-8.8505,-8.8583,-8.8582,-8.8689,-8.8712,-8.871,-8.8797,-8.8782,-8.8878,-8.8867,-8.9026,-8.9002,-8.9012,-8.9006,-8.9117,-8.9106,-8.948,-8.9527,-8.9194,-8.9197,-8.9199,0,-8.8364,-8.8458,-8.8502,-8.8555,-8.8582,-8.8668,-8.8718,-8.8692,-8.8746,-8.8803,-8.8873,-8.8956,-8.902,-8.9162,-8.9167,-8.924,-8.9216,-8.9342,-8.9227,-8.9234,-8.9217,-8.9211,-8.922,-8.9365,-8.9369,-8.9372,-8.9375,0,-8.8659,-8.8652,-8.8727,-8.8802,-8.8864,-8.8921,-8.8971,-8.9017,-8.8996,-8.9058,-8.9148,-8.9199,-8.9297,-8.9379,-8.9447,-8.9465,-8.9416,-8.9411,-8.944,-8.9452,-8.9453,-8.9453,-8.9074,-8.9402,-8.94,-8.9398,-8.9396,-8.9395,-8.8875,-8.8955,-8.8998,-8.9084,-8.912,-8.9169,-8.9244,-8.9253,-8.9328,-8.9408,-8.9387,-8.9488,-8.9527,-8.9614,-8.9641,-8.9717,-8.967,-8.9713,-8.9723,-8.9734,-8.9747,-8.9442,-8.973,-8.9729,-8.9728,-8.9727,-8.9727,0,-8.9166,-8.9191,-8.927,-8.9344,-8.9411,-8.9361,-8.9415,-8.9473,-8.9564,-8.9606,-8.9671,-8.9773,-8.9852,-8.9864,-8.9938,-8.9997,-8.9977,-9.0018,-9.0012,-9.0017,-8.9785,-8.9752,-9.0033,-9.0033,-9.0033,-9.0033,-9.0033,-9.0033,-8.9326,-8.946,-8.9457,-8.9607,-8.9629,-8.973,-8.9765,-8.9809,-8.9842,-8.996,-9.0026,-9.0034,-9.0063,-9.0139,-9.0209,-9.021,-9.0239,-9.0289,-9.0282,-9.0064,-9.0034,-9.0005,-8.9973,-9.0296,-9.0296,-9.0507,-9.0509,-9.051]}]]